CAPE
0 0 0 0 0 0 0 0 0 0 0 0 0 0 0 0 0 12 137 522 1151 1559 1835 2277 2504 2457 2565 2138 1755 1649 1324 984 1049 671 239 81 18 0 0 0 0 0 0 0
0 0 0 0 0 0 0 0 0 0 0 0 0 0 0 0 0 6 147 475 909 1623 1917 1641 1210 1585 1270 1070 1068 960 828 690 660 889 448 175 13 0 0 0 0 0 0 0
0 0 0 0 0 0 0 0 0 0 0 0 0 0 0 0 108 575 551 671 855 857 987 849 406 592 562 569 540 578 568 478 243 162 69 2 0 0 0 0 0 0 0 0
0 0 0 0 0 0 0 0 0 0 0 0 0 0 0 0 0 220 458 478 283 251 175 279 402 203 32 3 5 17 17 16 4 1 10 91 146 125 0 0 0 0 0 0
0 0 0 0 0 0 0 0 0 0 0 0 0 0 24 0 0 43 344 226 11 0 184 136 2 0 0 0 3 5 3 3 1 1 1 0 0 0 0 0 0 0 0 0
0 0 0 0 0 0 0 0 0 0 0 0 0 0 0 1 0 88 349 172 0 0 0 0 0 0 0 0 1 6 9 11 7 2 0 0 0 0 0 0 0 0 0 0
0 0 0 0 0 0 0 0 0 0 0 0 0 0 10 7 13 289 364 121 0 0 0 0 0 0 0 0 1 1 2 0 0 0 0 0 0 0 0 0 0 0 0 0
0 0 0 0 0 0 0 0 0 0 3 2 0 0 2 48 262 343 177 43 0 0 0 0 0 0 0 0 0 0 0 0 0 0 0 0 0 0 0 0 0 0 0 1
0 0 0 0 0 0 0 0 0 0 0 0 0 0 3 162 281 301 303 138 10 0 0 0 0 0 0 0 0 0 0 0 0 0 0 0 0 0 0 0 1 0 0 0
0 0 0 0 0 0 0 0 0 0 0 1 1 0 4 223 307 337 396 343 79 0 0 0 0 0 0 0 0 0 0 0 0 0 0 0 0 0 0 0 0 1 2 7
0 0 0 0 0 0 0 0 0 5 7 10 11 39 36 74 248 325 364 482 201 0 0 0 0 0 0 0 0 0 0 0 0 0 0 0 0 0 0 0 0 0 0 3
0 0 0 0 0 0 0 0 0 0 3 0 3 2 25 191 240 319 331 468 229 47 0 0 0 0 0 0 0 0 0 0 0 0 0 0 0 0 0 0 2 1 2 0
0 0 0 0 0 0 0 0 0 2 79 29 49 57 214 281 299 312 359 449 189 59 0 0 0 0 0 0 0 0 0 0 0 0 0 0 0 0 0 0 2 1 0 2
0 0 0 0 0 3 0 0 0 13 33 21 32 73 249 362 406 435 437 485 160 49 0 0 0 0 0 0 0 0 0 0 0 0 0 0 0 4 3 0 2 3 3 11
0 0 0 0 0 0 0 0 0 27 14 65 85 84 115 182 389 489 625 502 166 26 0 0 0 0 0 0 0 0 0 0 0 0 0 0 0 6 2 0 3 3 5 8
105 128 83 5 2 0 7 17 20 23 38 73 85 121 143 157 186 181 536 573 201 48 0 0 0 0 0 0 0 0 0 0 0 0 0 0 0 1 1 0 2 6 7 7
114 348 275 119 48 45 58 46 74 73 53 60 110 107 164 43 175 228 456 524 242 62 0 0 0 0 0 0 0 0 0 0 0 0 0 0 0 0 1 1 2 5 8 14
372 528 321 267 165 136 103 42 56 65 41 41 7 0 10 151 377 367 367 513 305 43 0 0 0 0 0 0 0 0 0 0 0 0 0 0 0 0 1 3 2 7 10 19
291 386 301 325 283 142 39 19 10 25 18 0 0 0 19 140 278 266 98 284 225 20 0 1 1 0 0 0 0 0 0 0 0 0 0 0 0 0 0 0 0 8 8 14
304 448 283 170 162 186 163 46 16 0 22 9 0 0 57 93 0 161 8 13 1 0 0 1 1 0 0 0 0 0 0 0 0 0 0 0 0 0 0 0 0 3 9 6
165 228 196 190 168 145 111 31 11 2 44 0 0 6 88 74 367 5 0 0 0 0 1 0 0 0 0 0 0 0 0 0 0 0 0 0 0 0 0 0 2 2 1 0
107 145 166 241 203 137 84 41 12 320 37 11 141 216 403 281 0 0 0 0 0 0 0 0 0 0 0 0 0 0 0 0 0 0 0 0 0 0 0 0 0 0 2 5
207 125 149 120 158 395 153 287 493 334 106 177 257 315 377 65 0 0 0 0 0 0 0 0 0 0 0 0 0 0 0 0 0 0 0 0 0 0 0 0 0 0 0 0
197 104 185 251 184 273 278 439 452 360 454 464 535 289 74 26 0 0 0 0 0 0 0 0 0 0 0 0 0 0 0 0 0 0 0 0 0 0 0 0 0 0 0 0
197 188 175 150 118 97 139 380 483 432 321 92 16 20 57 3 0 0 0 0 0 0 0 0 0 0 0 0 0 0 0 0 1 2 0 0 0 0 0 0 0 0 0 0
235 247 166 69 136 103 392 440 269 174 61 32 29 4 0 0 0 0 0 0 0 0 0 0 0 1 1 0 0 0 0 0 0 0 0 0 0 0 0 0 0 0 0 0
CIN
-0 -0 -0 -0 -0 -0 -0 -0 -0 -0 -0 -0 -0 -0 -0 -0 -0 -8 -0 -4 -6 -6 -1 -9 -56 -53 -49 -94 -146 -155 -146 -163 -136 -174 -251 -306 -369 -0 -0 -0 -0 -0 -0 -0
-0 -0 -0 -0 -0 -0 -0 -0 -0 -0 -0 -0 -0 -0 -0 -0 -0 -8 -13 -5 -8 -15 -21 -82 -168 -133 -179 -244 -226 -243 -190 -214 -178 -119 -149 -201 -334 -0 -0 -0 -0 -0 -0 -0
-0 -0 -0 -0 -0 -0 -0 -0 -0 -0 -0 -0 -0 -0 -0 -0 -38 -58 -121 -170 -183 -165 -113 -121 -282 -300 -338 -349 -332 -298 -253 -239 -252 -269 -307 -186 -0 -0 -0 -0 -0 -0 -0 -0
-0 -0 -0 -0 -0 -0 -0 -0 -0 -0 -0 -0 -0 -0 -0 -0 -0 -83 -136 -200 -296 -316 -234 -208 -326 -481 -509 -120 -0 -102 -23 -86 -79 -72 -270 -160 -87 -87 -0 -0 -0 -0 -0 -0
-0 -0 -0 -0 -0 -0 -0 -0 -0 -0 -0 -0 -0 -0 -4 -0 -0 -54 -144 -269 -176 -0 -364 -402 -170 -0 -0 -0 -0 -0 -0 -0 -0 -0 -0 -0 -0 -0 -0 -0 -0 -0 -0 -0
-0 -0 -0 -0 -0 -0 -0 -0 -0 -0 -0 -0 -0 -0 -0 -0 -0 -36 -92 -267 -0 -0 -0 -0 -0 -0 -0 -0 -0 -0 -0 -0 -0 -0 -0 -0 -0 -0 -0 -0 -0 -0 -0 -0
-0 -0 -0 -0 -0 -0 -0 -0 -0 -0 -0 -0 -0 -0 -8 -26 -24 -70 -105 -221 -0 -0 -0 -0 -0 -0 -0 -0 -0 -0 -0 -0 -0 -0 -0 -0 -0 -0 -0 -0 -0 -0 -0 -0
-0 -0 -0 -0 -0 -0 -0 -0 -0 -0 -0 -0 -0 -0 -0 -75 -123 -168 -237 -310 -0 -0 -0 -0 -0 -0 -0 -0 -0 -0 -0 -0 -0 -0 -0 -0 -0 -0 -0 -0 -0 -0 -0 -0
-0 -0 -0 -0 -0 -0 -0 -0 -0 -0 -0 -0 -0 -0 -81 -96 -113 -152 -133 -217 -148 -0 -0 -0 -0 -0 -0 -0 -0 -0 -0 -0 -0 -0 -0 -0 -0 -0 -0 -0 -0 -0 -0 -0
-0 -0 -0 -0 -0 -0 -0 -0 -0 -0 -0 -0 -0 -0 -0 -28 -29 -65 -78 -125 -247 -0 -0 -0 -0 -0 -0 -0 -0 -0 -0 -0 -0 -0 -0 -0 -0 -0 -0 -0 -0 -0 -0 -0
-0 -0 -0 -0 -0 -0 -0 -0 -0 -8 -5 -0 -4 -0 -13 -11 -19 -29 -35 -64 -176 -0 -0 -0 -0 -0 -0 -0 -0 -0 -0 -0 -0 -0 -0 -0 -0 -0 -0 -0 -0 -0 -0 -0
-0 -0 -0 -0 -0 -0 -0 -0 -0 -0 -0 -0 -13 -5 -54 -15 -21 -35 -30 -68 -150 -279 -0 -0 -0 -0 -0 -0 -0 -0 -0 -0 -0 -0 -0 -0 -0 -0 -0 -0 -0 -0 -0 -0
-0 -0 -0 -0 -0 -0 -0 -0 -0 -5 -9 -0 -1 -0 -35 -47 -50 -50 -38 -76 -196 -298 -0 -0 -0 -0 -0 -0 -0 -0 -0 -0 -0 -0 -0 -0 -0 -0 -0 -0 -0 -0 -0 -0
-0 -0 -0 -0 -0 -0 -0 -0 -0 -2 -0 -0 -0 -0 -19 -33 -40 -49 -54 -74 -176 -289 -0 -0 -0 -0 -0 -0 -0 -0 -0 -0 -0 -0 -0 -0 -0 -0 -0 -0 -0 -0 -0 -0
-0 -0 -0 -0 -0 -0 -0 -0 -0 -2 -0 -0 -0 -1 -0 -18 -23 -18 -27 -86 -190 -313 -0 -0 -0 -0 -0 -0 -0 -0 -0 -0 -0 -0 -0 -0 -0 -0 -0 -0 -0 -0 -0 -0
-84 -5 -11 -6 -23 -0 -7 -1 -6 -4 -6 -5 -13 -9 -14 -63 -77 -55 -31 -87 -167 -281 -0 -0 -0 -0 -0 -0 -0 -0 -0 -0 -0 -0 -0 -0 -0 -0 -0 -0 -0 -0 -0 -0
-46 -19 -12 -0 -15 -8 -0 -6 -10 -13 -12 -3 -1 -1 -32 -44 -60 -65 -48 -76 -119 -241 -0 -0 -0 -0 -0 -0 -0 -0 -0 -0 -0 -0 -0 -0 -0 -0 -0 -0 -0 -0 -0 -0
-23 -18 -1 -0 -14 -1 -17 -25 -24 -18 -13 -17 -31 -0 -35 -65 -91 -90 -84 -53 -92 -242 -0 -0 -0 -0 -0 -0 -0 -0 -0 -0 -0 -0 -0 -0 -0 -0 -0 -0 -0 -0 -0 -0
-25 -9 -0 -0 -0 -6 -53 -55 -21 -19 -7 -0 -0 -0 -66 -61 -60 -106 -177 -107 -115 -255 -0 -0 -0 -0 -0 -0 -0 -0 -0 -0 -0 -0 -0 -0 -0 -0 -0 -0 -0 -0 -0 -0
-30 -33 -0 -0 -0 -0 -0 -20 -54 -0 -7 -2 -0 -0 -21 -26 -0 -76 -193 -196 -89 -0 -0 -0 -0 -0 -0 -0 -0 -0 -0 -0 -0 -0 -0 -0 -0 -0 -0 -0 -0 -0 -0 -0
-2 -0 -0 -1 -0 -1 -9 -32 -35 -1 -6 -0 -0 -6 -15 -3 -61 -19 -0 -0 -0 -0 -0 -0 -0 -0 -0 -0 -0 -0 -0 -0 -0 -0 -0 -0 -0 -0 -0 -0 -0 -0 -0 -0
-0 -0 -0 -0 -0 -0 -24 -22 -9 -13 -33 -15 -9 -7 -12 -88 -0 -0 -0 -0 -0 -0 -0 -0 -0 -0 -0 -0 -0 -0 -0 -0 -0 -0 -0 -0 -0 -0 -0 -0 -0 -0 -0 -0
-0 -0 -0 -0 -0 -37 -18 -8 -32 -20 -8 -9 -7 -20 -21 -77 -0 -0 -0 -0 -0 -0 -0 -0 -0 -0 -0 -0 -0 -0 -0 -0 -0 -0 -0 -0 -0 -0 -0 -0 -0 -0 -0 -0
-31 -47 -0 -3 -21 -11 -25 -40 -42 -29 -9 -14 -15 -43 -68 -84 -0 -0 -0 -0 -0 -0 -0 -0 -0 -0 -0 -0 -0 -0 -0 -0 -0 -0 -0 -0 -0 -0 -0 -0 -0 -0 -0 -0
-11 -27 -3 -0 -14 -24 -25 -20 -32 -45 -55 -64 -77 -81 -78 -42 -0 -0 -0 -0 -0 -0 -0 -0 -0 -0 -0 -0 -0 -0 -0 -0 -0 -0 -0 -0 -0 -0 -0 -0 -0 -0 -0 -0
-18 -0 -0 -0 -2 -5 -3 -21 -49 -51 -64 -78 -88 -31 -0 -0 -0 -0 -0 -0 -0 -0 -0 -0 -0 -0 -0 -0 -0 -0 -0 -0 -0 -0 -0 -0 -0 -0 -0 -0 -0 -0 -0 -0
Wind_Speed
13 11 12 13 8 8 8 8 9 9 4 6 10 11 11 5 11 14 16 15 13 11 8 10 11 11 10 5 8 9 9 8 8 7 8 8 7 6 5 5 6 7 8 8
8 15 9 2 6 8 10 12 12 7 3 8 8 12 4 1 6 8 11 10 9 8 8 4 5 7 8 8 7 8 9 11 8 5 3 3 4 5 5 4 3 4 6 9
16 2 4 11 10 11 12 13 12 12 9 7 6 12 10 5 4 6 6 4 6 4 6 5 5 3 4 5 6 7 9 10 6 9 8 6 6 5 5 3 4 3 6 6
14 10 6 11 12 12 12 13 12 11 11 11 8 8 12 9 6 3 4 6 5 7 1 4 6 5 6 7 7 8 8 9 8 8 6 8 5 4 6 2 4 4 6 6
12 11 16 13 13 10 2 2 11 14 14 9 12 9 9 10 10 5 7 8 9 10 10 9 9 8 9 8 8 8 9 9 7 5 4 3 5 2 2 4 3 4 1 5
16 3 8 17 9 7 3 5 8 9 10 12 11 5 7 7 2 4 8 10 9 9 9 9 9 9 10 11 11 10 10 10 9 8 8 8 7 5 3 5 4 3 4 4
15 14 10 4 12 9 10 10 9 10 11 10 6 6 6 7 4 2 4 6 8 7 8 9 9 10 10 10 10 9 8 8 7 7 7 7 6 6 5 5 6 7 5 5
14 15 21 13 17 12 16 13 8 9 7 6 7 7 8 5 5 4 4 4 5 5 8 9 10 10 10 9 9 9 8 8 7 7 7 7 7 4 5 5 6 6 7 7
13 14 5 14 16 17 9 11 6 8 4 9 7 8 6 8 7 7 7 5 6 7 8 9 9 9 9 9 8 7 7 7 8 7 6 5 5 7 5 7 7 7 8 9
8 8 10 10 9 5 12 9 8 8 10 12 9 5 4 13 12 11 10 9 9 9 10 10 10 9 8 8 7 7 7 8 7 5 5 5 5 6 7 7 9 10 10 11
11 7 11 11 14 15 10 12 8 7 5 8 10 5 5 8 11 12 12 12 12 12 11 11 10 9 8 7 7 7 6 6 5 6 4 5 6 7 7 7 9 11 11 11
17 8 8 15 7 4 6 12 16 11 12 7 9 8 2 8 10 9 10 11 11 11 12 11 10 10 8 7 7 7 6 4 4 6 5 5 5 6 6 8 10 11 10 10
16 11 12 11 8 7 10 11 9 6 5 7 9 4 7 7 7 8 9 11 11 12 13 12 11 9 8 7 7 6 6 5 3 5 3 2 5 5 6 8 10 10 10 10
12 13 17 12 13 15 15 12 12 13 9 10 11 5 11 9 9 9 7 10 11 11 12 12 11 9 8 7 7 6 5 4 4 2 4 3 4 5 6 7 9 9 9 9
13 13 17 18 12 9 13 16 15 14 12 8 4 8 4 7 8 10 9 10 12 12 13 12 11 10 8 7 7 6 6 2 2 4 5 5 4 6 5 6 7 8 9 9
8 8 12 12 10 12 12 13 14 13 9 6 4 6 4 2 3 6 8 12 13 13 13 12 12 10 9 8 6 5 2 4 3 4 4 5 6 6 5 5 6 7 9 10
12 9 11 11 9 10 12 13 15 12 10 9 10 2 4 3 3 2 6 10 11 11 12 12 12 10 8 7 6 5 3 0 3 4 4 3 5 6 6 5 6 7 8 8
10 13 8 8 10 13 6 6 5 8 5 7 1 3 1 2 3 3 4 6 7 9 11 11 10 9 9 8 6 4 2 4 4 3 4 4 5 6 6 6 6 6 6 7
6 10 4 7 13 7 7 6 8 10 8 7 5 3 3 5 6 7 5 3 6 9 9 10 9 10 10 8 5 3 6 4 4 4 5 5 7 7 7 7 7 7 7 6
6 6 9 8 13 13 9 12 3 2 10 7 4 4 6 6 10 11 7 8 10 10 10 11 11 11 9 6 5 6 2 3 3 4 6 6 7 8 8 8 8 7 7 7
10 10 14 9 10 5 10 9 7 9 4 7 5 4 4 2 7 10 9 10 10 11 13 13 12 10 8 6 4 2 3 3 5 5 6 6 7 7 7 7 7 7 8 7
13 11 9 10 11 10 12 8 10 5 6 7 5 4 6 10 10 10 10 11 12 13 14 12 11 8 7 6 3 0 3 4 4 5 6 7 7 6 7 8 8 8 7 8
11 5 5 6 6 8 7 2 6 1 5 5 6 6 8 9 9 11 11 12 13 13 11 10 10 9 6 4 4 3 3 4 4 5 6 6 8 7 7 8 7 8 7 7
4 3 4 7 7 8 6 4 2 2 3 5 7 8 8 9 11 12 12 12 12 11 11 9 10 8 6 6 4 1 3 4 5 6 6 6 7 6 7 8 6 7 8 9
4 8 8 5 6 4 5 2 4 6 8 9 9 8 9 12 12 13 12 12 11 11 11 10 9 8 7 5 3 1 3 5 6 8 7 5 7 6 7 6 6 6 7 7
5 6 7 4 4 5 6 6 7 9 10 9 11 10 9 11 13 13 12 10 11 11 11 10 8 6 5 4 2 0 2 4 5 6 4 5 7 6 6 7 7 7 4 7
Wind_Direction
201 219 217 214 224 318 290 258 234 189 120 252 238 237 243 201 227 233 232 227 226 246 231 207 201 227 214 206 196 201 180 166 171 171 171 167 153 138 115 74 34 6 0 356
180 227 227 220 212 222 228 232 224 214 172 236 222 237 174 289 271 292 287 281 255 223 205 170 217 208 194 190 181 175 166 168 165 152 172 139 156 115 105 72 55 40 0 357
229 88 237 206 196 218 225 231 230 239 172 229 246 237 172 123 99 84 67 38 32 342 294 198 177 155 146 152 152 158 153 148 138 140 140 140 140 160 174 124 50 33 37 354
237 192 183 203 224 215 225 211 235 224 223 236 190 269 161 138 132 111 81 65 36 11 178 109 111 94 77 83 96 114 128 134 140 150 168 189 211 236 32 44 63 7 42 1
209 210 213 220 222 201 78 217 223 217 226 260 193 247 120 156 159 118 78 64 51 49 43 65 71 83 95 112 112 112 111 104 102 97 71 42 37 71 91 33 59 52 23 354
243 175 220 216 162 212 122 197 188 211 218 224 227 249 233 143 92 120 85 71 61 64 79 86 94 106 109 111 107 101 88 64 49 48 50 57 62 42 32 35 19 313 10 331
215 210 195 213 204 189 208 202 192 207 204 240 132 222 53 112 129 37 49 56 50 57 86 104 113 112 113 108 103 94 84 78 72 69 64 69 67 51 57 3 19 336 339 340
206 203 208 191 229 208 204 220 255 243 207 218 145 233 123 125 129 117 103 99 99 91 103 110 112 115 113 100 94 96 96 87 76 67 65 58 28 39 29 29 8 327 317 324
202 229 166 211 207 228 174 222 295 261 264 282 255 124 169 165 170 175 170 158 128 125 123 127 126 126 118 100 89 90 86 82 70 70 66 58 38 23 4 10 337 339 314 333
199 213 196 170 195 198 258 174 193 213 244 240 228 239 276 184 190 184 181 177 153 149 150 146 141 124 114 104 100 83 71 70 81 69 51 42 36 8 358 354 342 328 322 316
190 255 156 172 206 189 182 212 231 294 315 263 269 254 85 172 179 176 175 167 162 163 157 155 141 135 124 121 104 98 95 91 85 62 33 42 20 11 1 350 341 332 323 307
209 217 214 200 98 335 282 239 212 234 215 234 274 281 136 146 160 171 166 155 151 159 154 151 147 147 143 126 115 109 98 92 61 49 6 30 13 5 1 352 338 337 320 326
183 212 207 220 193 194 228 203 235 248 276 233 237 232 144 151 168 183 182 155 155 161 156 155 154 157 145 133 134 127 114 77 73 26 350 339 15 354 358 351 348 344 342 334
181 216 221 221 218 205 202 210 214 212 228 234 226 243 161 190 201 197 200 164 167 174 164 161 162 163 158 148 147 137 118 94 8 8 299 317 334 336 350 345 351 353 352 342
191 211 217 229 256 214 211 198 196 210 239 262 277 217 141 185 205 212 191 177 173 177 173 171 171 169 164 162 150 142 110 44 282 271 296 338 315 314 327 342 344 354 351 347
192 204 208 208 230 225 219 210 203 215 204 210 205 236 32 43 288 249 195 182 189 183 180 179 174 171 172 161 154 131 162 230 251 257 258 300 317 313 326 323 332 345 351 359
182 164 190 195 206 195 212 195 195 185 199 229 221 335 108 221 263 274 214 193 194 182 179 179 173 174 161 154 145 170 207 148 253 274 279 305 327 318 314 311 318 341 346 352
182 196 198 164 169 212 90 121 208 224 222 211 196 230 7 8 75 49 8 173 174 167 172 170 164 160 151 133 145 168 181 230 256 275 298 327 320 316 316 306 317 325 331 337
208 195 162 177 209 120 148 173 177 191 194 207 246 174 168 131 153 100 59 67 132 151 153 150 147 148 135 140 149 167 214 245 277 312 319 337 320 315 318 321 323 309 311 324
157 248 228 192 243 218 246 138 156 148 248 156 218 198 165 178 243 85 97 107 116 126 129 138 134 126 133 125 186 210 229 272 326 337 322 324 326 320 321 328 319 311 296 298
187 208 217 196 231 191 104 139 168 231 70 107 162 149 156 181 46 105 108 105 114 123 128 125 135 132 118 184 124 215 264 344 342 312 312 320 326 324 319 319 312 304 302 316
202 200 206 230 211 218 136 139 231 63 108 119 148 134 131 111 120 119 118 121 126 126 136 136 120 135 151 122 174 255 18 350 320 307 308 330 330 318 327 318 308 315 315 308
219 238 206 234 222 99 172 29 95 38 136 154 146 132 127 136 134 134 132 136 135 139 124 138 142 125 120 123 233 190 39 353 337 314 328 331 324 333 324 310 314 307 322 313
145 172 179 189 131 112 147 150 124 189 148 126 118 131 138 139 142 138 141 139 139 141 144 134 142 139 145 197 173 251 6 358 320 322 323 334 311 331 326 310 332 335 343 341
62 172 153 135 138 163 166 183 135 127 124 120 116 131 133 143 146 146 143 145 143 140 145 145 145 170 155 158 159 167 12 337 339 333 328 333 324 331 312 329 335 334 27 11
195 135 215 240 86 275 75 137 155 148 141 131 128 125 131 140 142 145 145 146 147 151 146 158 160 159 148 155 141 115 345 326 325 309 336 338 313 329 333 332 334 117 108 129